星链-34291 (STARLINK-34291)

导读

STARLINK-34291是美国于2025年6月13日发射的星链卫星,归属SpaceX星链互联网卫星星座项目。星链旨在为全球提供低延迟、高速率的宽带互联网服务,该卫星延续了星链批量部署策略,升空后将参与星座组网,补充覆盖全球偏远地区网络盲区,进一步完善星链星座的通信服务能力与覆盖稳定性。

基本信息
目录编号:
64359
目录名称:
STARLINK-34291
国际标识:
2025-126R
轨道中心:
EARTH
卫星名称:
星链-34291
卫星全名:
星链-34291 (STARLINK-34291)
卫星状态:
在轨 (已飞行448 天)
发射日期:
2025-06-13 UTC
国别 :
美国 (US)
星等 :
--
轨道信息
数据来源 国际轨道数据
星历时间: 2026-09-04T14:00:02+0800
7小时前
查看轨道信息
半长轴: 6889.992km
偏心率: 0.0003131
轨道倾角: 70.002°
近地点辐角 293.466°
升交点赤经 304.019°
平近点角 83.619°
近地点: 509.697km
远地点: 514.013km
周期: 94.861分钟
每日圈数: 15.180102
详细信息
固有亮度:
5
最大亮度:
2.5
卫星平台:
Starlink V1.0
覆盖范围:
全球
运营商:
太空探索技术公司
运营商所在国:
美国
制造商(研发单位):
太空探索技术公司
制造商所在国:
美国
使用方式:
暂无
卫星简介
Starlink 计划是 SpaceX 推出的全球卫星互联网项目,通过发射低轨道卫星,为全球尤其是偏远地区提供高速、低延迟的互联网服务。自 2019 年起,Starlink 已部署数千颗卫星,旨在缩小全球数字鸿沟,推动互联网普及。该项目还为军事、航空等行业提供通信支持,带来广泛经济效益。
2D轨道图
3D轨道图
轨道高度分析图
轨道倾角分析图
轨道综合分析图
查看轨道综合分析图
交会数据列表
事件ID 空间交会对象 最接近时刻(TCA) 交会距离 交会风险概率(CRP) 交会风险指数(CRI) 操作
CDM_260905-114105-796406-435921
2026-09-05T
11:41:30+0000
0.502 km
远距离
1.608059E-4 高风险 0.79
CDM_260906-053906-171406-435921
2026-09-06T
05:39:29+0000
1.221 km
极远距离
6.53598E-6 低风险 0.51
CDM_260905-234906-435906-502021
2026-09-05T
23:49:25+0000
1.470 km
极远距离
6.215818E-6 低风险 0.51
CDM_260906-054305-901006-435921
2026-09-06T
05:43:11+0000
1.232 km
极远距离
4.62389E-6 低风险 0.48
CDM_260906-065306-059106-435921
2026-09-06T
06:53:34+0000
1.613 km
极远距离
4.393271E-6 低风险 0.48
CDM_260905-153605-952006-435921
2026-09-05T
15:36:11+0000
2.162 km
极远距离
1.712617E-6 低风险 0.4
CDM_260906-021104-799706-435921
2026-09-06T
02:11:11+0000
2.498 km
极远距离
1.491212E-6 低风险 0.38
CDM_260905-122805-796406-435921
2026-09-05T
12:28:37+0000
2.773 km
极远距离
1.185082E-6 低风险 0.36
CDM_260904-061901-315406-435921
SL-3 R/B (13154)
2026-09-04T
06:19:11+0000
2.596 km
极远距离
1.158033E-6 低风险 0.36
CDM_260902-050105-461106-435921
2026-09-02T
05:01:32+0000
2.585 km
极远距离
1.043513E-6 低风险 0.35